TimeCST,TemperatureF,Dew PointF,Humidity,Sea Level PressureIn,VisibilityMPH,Wind Direction,Wind SpeedMPH,Gust SpeedMPH,PrecipitationIn,Events,Conditions,WindDirDegrees,DateUTC
12:15 AM,26.6,24.8,93,30.02,10.0,Calm,Calm,-,N/A,,Clear,0,2014-02-16 06:15:00
12:35 AM,26.6,23.0,86,30.02,10.0,Calm,Calm,-,N/A,,Clear,0,2014-02-16 06:35:00
12:55 AM,26.6,23.0,86,30.02,10.0,Calm,Calm,-,N/A,,Clear,0,2014-02-16 06:55:00
1:15 AM,26.6,23.0,86,30.01,10.0,South,3.5,-,N/A,,Clear,180,2014-02-16 07:15:00
1:35 AM,26.6,23.0,86,30.01,10.0,SSW,3.5,-,N/A,,Clear,200,2014-02-16 07:35:00
1:55 AM,30.2,24.8,80,30.01,10.0,SSW,3.5,-,N/A,,Clear,200,2014-02-16 07:55:00
2:15 AM,28.4,24.8,86,30.01,10.0,South,3.5,-,N/A,,Clear,170,2014-02-16 08:15:00
2:35 AM,28.4,23.0,80,30.02,10.0,Calm,Calm,-,N/A,,Clear,0,2014-02-16 08:35:00
2:55 AM,26.6,23.0,86,30.02,10.0,NNE,3.5,-,N/A,,Clear,30,2014-02-16 08:55:00
3:15 AM,28.4,23.0,80,30.02,10.0,Calm,Calm,-,N/A,,Clear,0,2014-02-16 09:15:00
3:35 AM,26.6,23.0,86,30.02,10.0,Calm,Calm,-,N/A,,Clear,0,2014-02-16 09:35:00
3:55 AM,28.4,24.8,86,30.02,10.0,Calm,Calm,-,N/A,,Clear,0,2014-02-16 09:55:00
4:15 AM,26.6,23.0,86,30.02,10.0,Calm,Calm,-,N/A,,Clear,0,2014-02-16 10:15:00
4:35 AM,26.6,24.8,93,30.02,10.0,Calm,Calm,-,N/A,,Clear,0,2014-02-16 10:35:00
4:55 AM,24.8,23.0,93,30.02,10.0,Calm,Calm,-,N/A,,Clear,0,2014-02-16 10:55:00
5:15 AM,24.8,23.0,93,30.03,10.0,Calm,Calm,-,N/A,,Clear,0,2014-02-16 11:15:00
5:35 AM,24.8,24.8,100,30.03,10.0,Calm,Calm,-,N/A,,Clear,0,2014-02-16 11:35:00
5:55 AM,24.8,24.8,100,30.03,10.0,Calm,Calm,-,N/A,,Clear,0,2014-02-16 11:55:00
6:15 AM,26.6,23.0,86,30.04,10.0,Calm,Calm,-,N/A,,Clear,0,2014-02-16 12:15:00
6:35 AM,24.8,21.2,86,30.06,10.0,SSW,3.5,-,N/A,,Clear,210,2014-02-16 12:35:00
6:55 AM,28.4,26.6,93,30.06,10.0,Calm,Calm,-,N/A,,Clear,0,2014-02-16 12:55:00
7:15 AM,28.4,26.6,93,30.07,10.0,Calm,Calm,-,N/A,,Clear,0,2014-02-16 13:15:00
7:35 AM,30.2,28.4,93,30.08,10.0,Calm,Calm,-,N/A,,Clear,0,2014-02-16 13:35:00
7:55 AM,30.2,28.4,93,30.09,10.0,NNW,5.8,-,N/A,,Clear,330,2014-02-16 13:55:00
8:15 AM,32.0,28.4,87,30.11,10.0,NW,6.9,-,N/A,,Clear,310,2014-02-16 14:15:00
8:35 AM,33.8,28.4,81,30.12,10.0,NNW,9.2,-,N/A,,Clear,330,2014-02-16 14:35:00
8:55 AM,33.8,28.4,81,30.13,10.0,NNW,11.5,-,N/A,,Clear,330,2014-02-16 14:55:00
9:15 AM,33.8,28.4,81,30.14,10.0,North,10.4,-,N/A,,Clear,350,2014-02-16 15:15:00
9:35 AM,33.8,28.4,81,30.15,10.0,North,11.5,-,N/A,,Clear,350,2014-02-16 15:35:00
9:55 AM,33.8,28.4,81,30.16,10.0,North,10.4,-,N/A,,Clear,10,2014-02-16 15:55:00
10:15 AM,35.6,28.4,75,30.17,10.0,North,9.2,-,N/A,,Clear,10,2014-02-16 16:15:00
10:35 AM,35.6,30.2,81,30.17,10.0,North,9.2,-,N/A,,Clear,10,2014-02-16 16:35:00
10:55 AM,37.4,30.2,75,30.18,10.0,North,9.2,-,N/A,,Clear,10,2014-02-16 16:55:00
11:15 AM,37.4,30.2,75,30.18,10.0,North,10.4,-,N/A,,Clear,10,2014-02-16 17:15:00
11:35 AM,37.4,30.2,75,30.17,10.0,NNW,9.2,-,N/A,,Clear,340,2014-02-16 17:35:00
11:55 AM,37.4,30.2,75,30.18,10.0,NNE,9.2,-,N/A,,Clear,20,2014-02-16 17:55:00
12:15 PM,39.2,32.0,75,30.18,10.0,NNE,9.2,-,N/A,,Clear,30,2014-02-16 18:15:00
12:35 PM,39.2,32.0,75,30.17,10.0,NNE,10.4,-,N/A,,Clear,20,2014-02-16 18:35:00
12:55 PM,39.2,32.0,75,30.17,10.0,North,10.4,-,N/A,,Clear,10,2014-02-16 18:55:00
1:15 PM,39.2,33.8,81,30.17,10.0,North,10.4,-,N/A,,Clear,360,2014-02-16 19:15:00
1:35 PM,39.2,33.8,81,30.17,10.0,North,9.2,-,N/A,,Clear,360,2014-02-16 19:35:00
1:55 PM,39.2,33.8,81,30.16,10.0,North,9.2,-,N/A,,Clear,360,2014-02-16 19:55:00
2:15 PM,39.2,32.0,75,30.16,10.0,North,8.1,-,N/A,,Clear,350,2014-02-16 20:15:00
2:35 PM,39.2,32.0,75,30.16,10.0,North,8.1,-,N/A,,Clear,360,2014-02-16 20:35:00
2:55 PM,39.2,32.0,75,30.16,10.0,North,6.9,-,N/A,,Clear,360,2014-02-16 20:55:00
3:15 PM,39.2,32.0,75,30.16,10.0,North,5.8,-,N/A,,Clear,360,2014-02-16 21:15:00
3:35 PM,39.2,32.0,75,30.17,10.0,North,6.9,-,N/A,,Clear,350,2014-02-16 21:35:00
3:55 PM,39.2,32.0,75,30.17,10.0,NNW,8.1,-,N/A,,Clear,340,2014-02-16 21:55:00
4:15 PM,39.2,32.0,75,30.17,10.0,North,5.8,-,N/A,,Clear,10,2014-02-16 22:15:00
4:35 PM,37.4,32.0,81,30.17,10.0,North,5.8,-,N/A,,Clear,350,2014-02-16 22:35:00
4:55 PM,37.4,30.2,75,30.18,10.0,North,6.9,-,N/A,,Clear,350,2014-02-16 22:55:00
5:15 PM,35.6,30.2,81,30.18,10.0,North,4.6,-,N/A,,Clear,10,2014-02-16 23:15:00
5:35 PM,33.8,30.2,87,30.19,10.0,North,5.8,-,N/A,,Clear,360,2014-02-16 23:35:00
5:55 PM,33.8,28.4,81,30.20,10.0,North,5.8,-,N/A,,Clear,360,2014-02-16 23:55:00
6:15 PM,33.8,28.4,81,30.19,10.0,NNE,8.1,-,N/A,,Clear,20,2014-02-17 00:15:00
6:35 PM,32.0,28.4,87,30.20,10.0,NNE,5.8,-,N/A,,Clear,20,2014-02-17 00:35:00
6:55 PM,30.2,28.4,93,30.20,10.0,NNE,4.6,-,N/A,,Clear,20,2014-02-17 00:55:00
7:15 PM,32.0,28.4,87,30.20,10.0,North,4.6,-,N/A,,Clear,10,2014-02-17 01:15:00
7:35 PM,30.2,28.4,93,30.18,10.0,NE,4.6,-,N/A,,Clear,40,2014-02-17 01:35:00
7:55 PM,30.2,28.4,93,30.19,10.0,NNE,4.6,-,N/A,,Clear,20,2014-02-17 01:55:00
8:15 PM,30.2,26.6,86,30.18,10.0,NNE,4.6,-,N/A,,Clear,30,2014-02-17 02:15:00
8:35 PM,30.2,26.6,86,30.18,10.0,Calm,Calm,-,N/A,,Clear,0,2014-02-17 02:35:00
8:55 PM,30.2,28.4,93,30.17,10.0,NE,5.8,-,N/A,,Clear,40,2014-02-17 02:55:00
9:15 PM,30.2,26.6,86,30.18,10.0,NE,8.1,-,N/A,,Clear,40,2014-02-17 03:15:00
9:35 PM,30.2,26.6,86,30.17,10.0,ENE,6.9,-,N/A,,Clear,60,2014-02-17 03:35:00
9:55 PM,30.2,26.6,86,30.17,10.0,ENE,8.1,-,N/A,,Clear,70,2014-02-17 03:55:00
10:15 PM,30.2,26.6,86,30.16,10.0,ENE,8.1,-,N/A,,Clear,60,2014-02-17 04:15:00
10:35 PM,30.2,26.6,86,30.16,10.0,ENE,9.2,-,N/A,,Clear,60,2014-02-17 04:35:00
10:55 PM,30.2,26.6,86,30.16,10.0,ENE,8.1,-,N/A,,Clear,60,2014-02-17 04:55:00
11:15 PM,30.2,26.6,86,30.15,10.0,ENE,5.8,-,N/A,,Clear,70,2014-02-17 05:15:00
11:35 PM,28.4,26.6,93,30.15,10.0,East,4.6,-,N/A,,Clear,80,2014-02-17 05:35:00
11:55 PM,28.4,26.6,93,30.15,10.0,ENE,4.6,-,N/A,,Clear,70,2014-02-17 05:55:00